CW3615 Weather Reports


time (UTC)temp
F
wind
direction
speed
knots
gust
knots
rain 1hr
in
rain 24hr
in
rain mn
in
humidity
%
barometer
mb
20260506162226 59 161 3.5 7.8 0.00 0.00 0.00 15 1010.7
20260506161557 58 186 3.5 7.8 0.00 0.00 0.00 15 1010.7
20260506161506 58 185 3.5 7.8 0.00 0.00 0.00 15 1010.7
20260506161236 59 193 1.7 7.8 0.00 0.00 0.00 16 1010.7
20260506160226 59 212 0.9 9.6 0.00 0.00 0.00 18 1010.7
20260506160017 58 212 1.7 8.7 0.00 0.00 0.00 19 1010.7
20260506155236 59 155 2.6 8.7 0.00 0.00 0.00 21 1010.7
20260506154505 59 196 5.2 10.4 0.00 0.00 0.00 23 1010.9
20260506154225 60 173 2.6 6.1 0.00 0.00 0.00 21 1010.9
20260506153253 60 196 1.7 11.3 0.00 0.00 0.00 20 1011.0
20260506153047 59 186 1.7 11.3 0.00 0.00 0.00 20 1011.0
20260506152224 59 188 1.7 8.7 0.00 0.00 0.00 18 1011.1
20260506151535 59 212 3.5 9.6 0.00 0.00 0.00 20 1011.0
20260506151234 59 126 2.6 9.6 0.00 0.00 0.00 19 1011.0
20260506150225 59 178 3.5 10.4 0.00 0.00 0.00 18 1010.9
20260506150041 59 168 2.6 10.4 0.00 0.00 0.00 18 1010.9
20260506145236 59 192 4.3 9.6 0.00 0.00 0.00 20 1010.9
20260506144518 59 174 0.0 7.0 0.00 0.00 0.00 19 1010.9
20260506144224 59 184 0.0 7.0 0.00 0.00 0.00 20 1010.9
20260506143230 59 211 3.5 9.6 0.00 0.00 0.00 23 1011.1
20260506143031 59 167 0.9 7.0 0.00 0.00 0.00 24 1011.1
20260506142222 60 164 1.7 8.7 0.00 0.00 0.00 26 1011.3
20260506141522 60 176 3.5 7.8 0.00 0.00 0.00 27 1011.4
20260506141227 60 176 0.9 9.6 0.00 0.00 0.00 24 1011.3
20260506140240 60 190 0.9 12.2 0.00 0.00 0.00 19 1011.3
20260506140039 59 171 4.3 12.2 0.00 0.00 0.00 21 1011.4
20260506135234 60 142 2.6 11.3 0.00 0.00 0.00 17 1011.5
20260506134528 59 221 4.3 15.6 0.00 0.00 0.00 19 1011.7
20260506134225 59 202 3.5 10.4 0.00 0.00 0.00 19 1011.6
20260506133256 60 180 3.5 7.8 0.00 0.00 0.00 18 1011.6
20260506133006 59 165 0.0 5.2 0.00 0.00 0.00 16 1011.6
20260506132227 59 236 0.9 4.3 0.00 0.00 0.00 11 1011.6
20260506131551 58 192 0.9 9.6 0.00 0.00 0.00 10 1011.5
20260506131302 59 187 1.7 9.6 0.00 0.00 0.00 11 1011.6
20260506130231 58 188 3.5 9.6 0.00 0.00 0.00 10 1011.6
20260506130031 58 187 0.9 7.0 0.00 0.00 0.00 11 1011.5
20260506125241 59 152 3.5 7.0 0.00 0.00 0.00 14 1011.6
20260506124534 58 171 0.0 9.6 0.00 0.00 0.00 14 1011.4
20260506124232 59 171 4.3 9.6 0.00 0.00 0.00 15 1011.5
20260506123226 59 221 2.6 7.8 0.00 0.00 0.00 12 1011.7
20260506123052 59 229 0.9 7.0 0.00 0.00 0.00 11 1011.7
20260506122233 59 199 2.6 8.7 0.00 0.00 0.00 6 1011.8
20260506121558 58 173 4.3 9.6 0.00 0.00 0.00 8 1011.9
20260506121309 58 175 3.5 7.0 0.00 0.00 0.00 8 1011.9
20260506120228 58 225 2.6 7.0 0.00 0.00 0.00 4 1012.0
20260506120103 58 157 0.9 6.1 0.00 0.00 0.00 3 1011.9
20260506120002 58 134 0.9 5.2 0.00 0.00 0.00 3 1011.9
20260506115241 58 180 1.7 5.2 0.00 0.00 0.00 1 1011.8
20260506114512 57 174 2.6 10.4 0.00 0.00 0.00 1 1011.7
20260506114251 58 171 1.7 10.4 0.00 0.00 0.00 1 1011.7
20260506113238 57 145 0.9 8.7 0.00 0.00 0.00 1 1011.6
20260506113008 57 180 0.9 8.7 0.00 0.00 0.00 1 1011.5
20260506112244 57 193 0.9 7.0 0.00 0.00 0.00 1 1011.7
20260506111508 56 171 0.0 9.6 0.00 0.00 0.00 1 1011.7
20260506111226 56 211 0.9 9.6 0.00 0.00 0.00 1 1011.8
20260506110237 56 175 0.0 7.0 0.00 0.00 0.00 1 1011.7
20260506110035 56 178 0.9 7.0 0.00 0.00 0.00 1 1011.7
20260506105228 56 192 0.0 7.0 0.00 0.00 0.00 1 1011.7
20260506104519 55 175 0.0 7.8 0.00 0.00 0.00 1 1011.7
20260506104237 56 234 0.9 7.8 0.00 0.00 0.00 1 1011.7
20260506103228 56 144 1.7 8.7 0.00 0.00 0.00 1 1011.4
20260506103042 55 197 0.9 7.0 0.00 0.00 0.00 1 1011.4
20260506102237 56 220 0.9 7.0 0.00 0.00 0.00 1 1011.5
20260506101524 55 187 0.0 7.0 0.00 0.00 0.00 1 1011.6
20260506101228 56 183 0.9 7.0 0.00 0.00 0.00 1 1011.5
20260506100237 56 190 0.9 4.3 0.00 0.00 0.00 1 1011.6
20260506100032 55 211 0.9 4.3 0.00 0.00 0.00 1 1011.6
20260506095227 56 130 1.7 6.1 0.00 0.00 0.00 1 1011.6
20260506094522 55 190 1.7 6.1 0.00 0.00 0.00 1 1011.5
20260506094301 56 188 0.9 9.6 0.00 0.00 0.00 1 1011.6
20260506093224 56 196 0.9 6.1 0.00 0.00 0.00 1 1011.4
20260506093020 55 196 0.0 6.1 0.00 0.00 0.00 1 1011.4
20260506092235 56 243 1.7 7.0 0.00 0.00 0.00 1 1011.5
20260506091600 56 233 0.9 7.8 0.00 0.00 0.00 1 1011.5
20260506091245 56 180 2.6 7.8 0.00 0.00 0.00 1 1011.6
20260506090236 56 185 1.7 4.3 0.00 0.00 0.00 1 1011.7
20260506090058 56 205 0.0 6.1 0.00 0.00 0.00 1 1011.7
20260506085247 56 210 0.9 7.8 0.00 0.00 0.00 1 1011.7
20260506084519 56 204 0.0 5.2 0.00 0.00 0.00 1 1011.8
20260506084238 57 180 0.9 7.8 0.00 0.00 0.00 1 1011.8
20260506083231 57 222 0.9 4.3 0.00 0.00 0.00 1 1011.8
20260506083031 56 223 0.0 4.3 0.00 0.00 0.00 2 1011.8
20260506082223 57 203 0.0 7.8 0.00 0.00 0.00 4 1011.8
20260506081505 56 170 1.7 8.7 0.00 0.00 0.00 5 1011.8
20260506081252 57 220 1.7 5.2 0.00 0.00 0.00 6 1011.8
20260506080223 57 222 3.5 8.7 0.00 0.00 0.00 7 1012.0
20260506073242 57 178 1.7 7.8 0.00 0.00 0.00 10 1012.1
20260506073025 57 192 2.6 7.8 0.00 0.00 0.00 10 1012.1
20260506072225 57 160 1.7 7.8 0.00 0.00 0.00 12 1012.2
20260506071501 57 159 2.6 7.0 0.00 0.00 0.00 12 1012.3
20260506071228 57 182 1.7 6.1 0.00 0.00 0.00 13 1012.3
20260506070231 57 211 1.7 9.6 0.00 0.00 0.00 15 1012.2
20260506062226 58 199 0.9 7.8 0.00 0.00 0.00 21 1012.0
20260506061517 58 145 2.6 8.7 0.00 0.00 0.00 21 1011.9
20260506061237 58 179 3.5 9.6 0.00 0.00 0.00 21 1011.9
20260506060247 58 171 2.6 9.6 0.00 0.00 0.00 22 1011.9
20260506051239 59 186 0.9 8.7 0.00 0.00 0.00 27 1012.2
20260506050248 59 169 3.5 7.8 0.00 0.00 0.00 28 1012.3
20260506044540 58 219 1.7 10.4 0.00 0.00 0.00 29 1012.2
20260506044239 59 152 4.3 10.4 0.00 0.00 0.00 29 1012.3
20260506043240 59 185 3.5 9.6 0.00 0.00 0.00 31 1012.2
20260506043055 58 208 0.9 9.6 0.00 0.00 0.00 32 1012.2
20260506042232 59 182 2.6 9.6 0.00 0.00 0.00 33 1012.3
20260506041600 58 175 3.5 8.7 0.00 0.00 0.00 35 1012.2
20260506041225 59 208 1.7 9.6 0.00 0.00 0.00 36 1012.3
20260506040238 59 169 4.3 9.6 0.00 0.00 0.00 37 1012.3
20260506040023 59 184 5.2 9.6 0.00 0.00 0.00 37 1012.3
20260506035224 59 181 2.6 9.6 0.00 0.00 0.00 37 1012.2
20260506034518 59 205 2.6 10.4 0.00 0.00 0.00 37 1012.1
20260506034239 59 183 1.7 9.6 0.00 0.00 0.00 37 1012.2
20260506033233 59 181 4.3 7.8 0.00 0.00 0.00 35 1012.3
20260506033042 58 222 0.9 7.0 0.00 0.00 0.00 35 1012.2
20260506032246 59 167 1.7 7.8 0.00 0.00 0.00 35 1012.3
20260506031529 58 184 0.0 7.8 0.00 0.00 0.00 35 1012.2
20260506031240 59 142 0.9 13.9 0.00 0.00 0.00 35 1012.3
20260506030234 59 186 2.6 11.3 0.00 0.00 0.00 35 1012.4
20260506030059 58 168 0.0 11.3 0.00 0.00 0.00 36 1012.3
20260506025228 59 155 3.5 9.6 0.00 0.00 0.00 36 1012.5
20260506024553 59 192 1.7 6.1 0.00 0.00 0.00 36 1012.4
20260506024223 59 223 3.5 7.0 0.00 0.00 0.00 36 1012.3
20260506023232 59 194 2.6 7.0 0.00 0.00 0.00 36 1012.3
20260506023009 59 192 1.7 7.0 0.00 0.00 0.00 37 1012.3
20260506022224 59 211 0.9 9.6 0.00 0.00 0.00 38 1012.4
20260506021600 59 179 3.5 10.4 0.00 0.00 0.00 39 1012.4
20260506021502 59 155 3.5 10.4 0.00 0.00 0.00 39 1012.4
20260506021234 59 180 1.7 10.4 0.00 0.00 0.00 40 1012.4
20260506020223 59 203 3.5 7.8 0.00 0.00 0.00 42 1012.3
20260506020012 59 215 3.5 8.7 0.00 0.00 0.00 43 1012.3
20260506015232 60 175 0.9 5.2 0.00 0.00 0.00 46 1010.8
20260506014603 59 169 0.9 8.7 0.00 0.00 0.00 47 1007.7
20260506014223 60 178 1.7 14.8 0.00 0.00 0.00 48 1004.7
20260506013231 60 213 3.5 9.6 0.00 0.00 0.00 51 1010.4
20260506013100 59 163 1.7 9.6 0.00 0.00 0.00 52 1011.9
20260506012239 60 186 0.9 9.6 0.00 0.00 0.00 55 1011.9
20260506011540 60 147 4.3 10.4 0.00 0.00 0.00 57 1011.9
20260506011228 61 194 5.2 10.4 0.00 0.00 0.00 57 1011.9
20260506010239 61 194 3.5 9.6 0.00 0.00 0.00 56 1011.7
20260506010101 60 242 3.5 17.4 0.00 0.00 0.00 57 1011.5
20260506005230 61 160 3.5 17.4 0.00 0.00 0.00 57 1011.4
20260506004545 60 189 3.5 10.4 0.00 0.00 0.00 58 1011.5
20260506004235 61 171 5.2 12.2 0.00 0.00 0.00 58 1011.5
20260506003306 61 164 5.2 10.4 0.00 0.00 0.00 59 1011.3
20260506003043 61 211 4.3 12.2 0.00 0.00 0.00 59 1011.3
20260506002222 61 199 4.3 13.0 0.00 0.00 0.00 59 1011.3
20260506001545 60 193 2.6 10.4 0.00 0.00 0.00 58 1011.2
20260506001248 61 153 3.5 10.4 0.00 0.00 0.00 58 1011.2
20260506000226 61 189 3.5 8.7 0.00 0.00 0.00 57 1010.9
20260506000017 60 197 3.5 8.7 0.00 0.00 0.00 57 1011.0
20260505235249 60 202 3.5 11.3 0.00 0.00 0.00 56 1010.9
20260505234516 60 190 2.6 8.7 0.00 0.00 0.00 55 1010.7
20260505234227 60 171 4.3 11.3 0.00 0.00 0.00 55 1010.7
20260505233228 60 196 5.2 14.8 0.00 0.00 0.00 56 1010.4
20260505233045 60 186 4.3 14.8 0.00 0.00 0.00 56 1010.5
20260505232234 61 171 3.5 13.0 0.00 0.00 0.00 57 1010.4
20260505231550 60 200 4.3 11.3 0.00 0.00 0.00 58 1010.3
20260505231239 61 173 3.5 9.6 0.00 0.00 0.00 58 1010.3
20260505230245 61 185 5.2 10.4 0.00 0.00 0.00 58 1010.1
20260505230057 61 215 3.5 10.4 0.00 0.00 0.00 58 1010.3
20260505225228 61 165 5.2 11.3 0.00 0.00 0.00 59 1010.2
20260505224506 61 171 3.5 14.8 0.00 0.00 0.00 59 1010.2
20260505224231 61 220 5.2 14.8 0.00 0.00 0.00 59 1010.0
20260505223237 61 161 4.3 13.0 0.00 0.00 0.00 59 1010.0
20260505223036 61 209 3.5 13.0 0.00 0.00 0.00 59 1009.9
20260505222242 62 166 4.3 9.6 0.00 0.00 0.00 60 1010.0
20260505221534 61 181 2.6 7.8 0.00 0.00 0.00 61 1010.0
20260505221247 62 205 0.9 8.7 0.00 0.00 0.00 60 1009.9
20260505220224 62 180 2.6 13.0 0.00 0.00 0.00 61 1009.9
20260505220005 62 172 5.2 13.0 0.00 0.00 0.00 61 1009.9
20260505215229 62 183 1.7 13.9 0.00 0.00 0.00 61 1009.9
20260505214503 61 188 2.6 8.7 0.00 0.00 0.00 61 1009.9
20260505214301 62 194 4.3 8.7 0.00 0.00 0.00 62 1009.9
20260505213245 62 200 1.7 9.6 0.00 0.00 0.00 62 1009.6
20260505213017 62 186 0.9 9.6 0.00 0.00 0.00 62 1009.6
20260505212222 63 219 6.1 13.0 0.00 0.00 0.00 63 1009.6
20260505211523 62 211 4.3 18.2 0.00 0.00 0.00 63 1009.3
20260505211225 63 194 4.3 18.2 0.00 0.00 0.00 63 1009.5
20260505210232 63 182 5.2 11.3 0.00 0.00 0.00 63 1009.6
20260505210053 63 178 5.2 11.3 0.00 0.00 0.00 63 1009.3
20260505205242 63 155 2.6 13.9 0.00 0.00 0.00 63 1003.5
20260505204551 63 203 2.6 13.9 0.00 0.00 0.00 63 1009.4
20260505204259 63 167 3.5 11.3 0.00 0.00 0.00 63 1009.4
20260505203250 63 237 5.2 13.0 0.00 0.00 0.00 62
20260505203047 62 185 5.2 10.4 0.00 0.00 0.00 62 1009.6
20260505202221 63 179 3.5 8.7 0.00 0.00 0.00 63 1009.6
20260505201543 63 247 0.9 8.7 0.00 0.00 0.00 61 1009.7
20260505201301 63 129 0.9 8.7 0.00 0.00 0.00 61 1009.7
20260505200232 63 180 0.9 7.0 0.00 0.00 0.00 61 1009.8
20260505200045 62 184 0.0 7.8 0.00 0.00 0.00 59 1009.8
20260505195225 62 179 4.3 11.3 0.00 0.00 0.00 61 1010.1
20260505194533 62 232 2.6 8.7 0.00 0.00 0.00 61 1010.2
20260505194259 63 234 4.3 9.6 0.00 0.00 0.00 62 1010.2
20260505193230 64 144 0.0 7.8 0.00 0.00 0.00 61 1010.3
20260505193035 63 123 0.0 8.7 0.00 0.00 0.00 62 1010.3
20260505192223 63 189 2.6 8.7 0.00 0.00 0.00 61 1010.5
20260505191519 63 167 3.5 8.7 0.00 0.00 0.00 61 1010.6
20260505191236 63 164 1.7 8.7 0.00 0.00 0.00 61 1010.6
20260505190229 63 173 0.9 8.7 0.00 0.00 0.00 60 1010.9
20260505190038 63 138 0.9 6.1 0.00 0.00 0.00 62 1010.9
20260505185223 64 227 0.9 6.1 0.00 0.00 0.00 61 1011.0
20260505184526 63 126 0.0 7.8 0.00 0.00 0.00 61 1011.2
20260505184239 64 132 0.9 7.8 0.00 0.00 0.00 62 1011.3
20260505183233 64 51 0.0 4.3 0.00 0.00 0.00 60 1011.3
20260505183027 63 196 0.0 6.1 0.00 0.00 0.00 61 1011.3
20260505182246 64 194 1.7 7.0 0.00 0.00 0.00 61 1011.4
20260505181526 63 171 0.0 7.0 0.00 0.00 0.00 60 1011.5
20260505181230 63 138 0.0 7.0 0.00 0.00 0.00 59 1011.5
20260505180223 63 147 0.0 4.3 0.00 0.00 0.00 60 1011.6
20260505180054 63 131 0.0 4.3 0.00 0.00 0.00 60 1011.5
20260505175236 63 170 0.9 8.7 0.00 0.00 0.00 60 1011.6
20260505174554 63 225 0.0 9.6 0.00 0.00 0.00 60 1011.7
20260505174242 63 173 1.7 5.2 0.00 0.00 0.00 59 1011.7
20260505173227 63 179 0.9 5.2 0.00 0.00 0.00 58 1011.6
20260505173024 62 205 0.9 4.3 0.00 0.00 0.00 58 1011.7
20260505172301 63 135 0.0 6.1 0.00 0.00 0.00 59 1011.7
20260505171510 63 109 0.0 5.2 0.00 0.00 0.00 58 1011.9
20260505171223 63 171 0.9 5.2 0.00 0.00 0.00 59 1011.8
20260505170233 63 148 0.0 7.8 0.00 0.00 0.00 57 1011.8
20260505170038 62 148 0.0 7.8 0.00 0.00 0.00 58 1011.8
20260505165224 63 182 0.9 7.0 0.00 0.00 0.00 59 1012.0
20260505164514 63 235 0.0 4.3 0.00 0.00 0.00 59 1011.9
20260505164233 63 179 0.0 4.3 0.00 0.00 0.00 60 1011.9
20260505163221 64 190 0.0 5.2 0.00 0.00 0.00 60 1012.2
20260505163031 63 190 0.9 5.2 0.00 0.00 0.00 61 1012.3